AFL4KY LTFJ-LTAN

Flight info

Callsign AFL4KY
Flight time 0h 50m
Altitude 31000
Route ROXUK UN617 ERVAG UT179 KFK UL620 OKLAM UB545 SEHIR
Aircraft T134/M-SDFGHRUWY/A

Departure

Time 2026-05-06 13:09
Airport Istanbul Sabiha Gökçen International Airport (LTFJ)

Arrival

Time 2026-05-06 13:59
Airport Konya Airport (LTAN)
Time Latitude Longitude Altitude Speed Heading
2026-05-06 12:39 40.90202 29.30989 321 ft 0 kts 153°
2026-05-06 12:53 40.90214 29.30982 321 ft 2 kts 158°
2026-05-06 12:53 40.90228 29.30977 321 ft 2 kts 171°
2026-05-06 12:53 40.90243 29.30976 321 ft 2 kts 185°
2026-05-06 12:53 40.90257 29.30980 321 ft 2 kts 197°
2026-05-06 12:54 40.90271 29.30988 321 ft 2 kts 211°
2026-05-06 12:54 40.90283 29.31000 321 ft 2 kts 224°
2026-05-06 12:54 40.90292 29.31015 321 ft 2 kts 237°
2026-05-06 12:54 40.90297 29.31025 321 ft 0 kts 243°
2026-05-06 13:01 40.90295 29.31020 321 ft 2 kts 243°
2026-05-06 13:01 40.90279 29.30979 321 ft 7 kts 243°
2026-05-06 13:01 40.90243 29.30895 321 ft 12 kts 224°
2026-05-06 13:01 40.90160 29.30908 321 ft 14 kts 155°
2026-05-06 13:02 40.90061 29.30967 321 ft 16 kts 155°
2026-05-06 13:02 40.89947 29.31040 321 ft 19 kts 156°
2026-05-06 13:02 40.89817 29.31115 321 ft 21 kts 145°
2026-05-06 13:02 40.89693 29.31225 321 ft 22 kts 156°
2026-05-06 13:03 40.89545 29.31314 321 ft 24 kts 154°
2026-05-06 13:03 40.89386 29.31415 321 ft 26 kts 154°
2026-05-06 13:03 40.89274 29.31524 321 ft 18 kts 85°
2026-05-06 13:03 40.89336 29.31725 321 ft 28 kts 65°
2026-05-06 13:04 40.89425 29.31974 321 ft 31 kts 64°
2026-05-06 13:04 40.89523 29.32239 321 ft 32 kts 64°
2026-05-06 13:04 40.89498 29.32444 321 ft 18 kts 71°
2026-05-06 13:04 40.89558 29.32612 321 ft 21 kts 64°
2026-05-06 13:05 40.89628 29.32799 322 ft 24 kts 63°
2026-05-06 13:05 40.89708 29.33015 322 ft 27 kts 64°
2026-05-06 13:05 40.89795 29.33252 322 ft 29 kts 64°
2026-05-06 13:05 40.89885 29.33495 322 ft 15 kts 65°
2026-05-06 13:06 40.89910 29.33566 322 ft 20 kts 65°
2026-05-06 13:06 40.89970 29.33742 322 ft 0 kts 66°
2026-05-06 13:06 40.89973 29.33751 322 ft 2 kts 66°
2026-05-06 13:06 40.89994 29.33812 322 ft 13 kts 63°
2026-05-06 13:07 40.89930 29.33960 322 ft 26 kts 155°
2026-05-06 13:07 40.89837 29.33935 322 ft 10 kts 252°
2026-05-06 13:07 40.89829 29.33910 322 ft 0 kts 242°
2026-05-06 13:08 40.89749 29.33695 322 ft 67 kts 244°
2026-05-06 13:08 40.89426 29.32815 322 ft 141 kts 243°
2026-05-06 13:08 40.88914 29.31421 402 ft 190 kts 243°
2026-05-06 13:09 40.88295 29.29738 929 ft 217 kts 243°
2026-05-06 13:09 40.87606 29.27912 1769 ft 227 kts 243°
2026-05-06 13:09 40.86646 29.26368 2580 ft 215 kts 214°
2026-05-06 13:09 40.85288 29.25705 3268 ft 205 kts 186°
2026-05-06 13:10 40.83912 29.25491 3858 ft 204 kts 198°
2026-05-06 13:10 40.82618 29.24760 4453 ft 203 kts 209°
2026-05-06 13:10 40.81383 29.23836 5011 ft 209 kts 214°
2026-05-06 13:10 40.80128 29.22780 5503 ft 221 kts 216°
2026-05-06 13:11 40.78835 29.21644 6062 ft 228 kts 216°
2026-05-06 13:11 40.77491 29.20475 6657 ft 234 kts 212°
2026-05-06 13:11 40.75939 29.19842 7183 ft 244 kts 183°
2026-05-06 13:11 40.74219 29.20133 7682 ft 258 kts 159°
2026-05-06 13:12 40.72628 29.21328 8214 ft 270 kts 142°
2026-05-06 13:12 40.70966 29.22547 8797 ft 282 kts 153°
2026-05-06 13:12 40.69207 29.23736 9431 ft 291 kts 153°
2026-05-06 13:12 40.67337 29.24880 10106 ft 298 kts 152°
2026-05-06 13:13 40.65462 29.26065 10800 ft 304 kts 154°
2026-05-06 13:13 40.63540 29.27266 11534 ft 308 kts 152°
2026-05-06 13:13 40.61606 29.28459 12242 ft 312 kts 153°
2026-05-06 13:13 40.59649 29.29687 12917 ft 316 kts 153°
2026-05-06 13:14 40.57642 29.30929 13623 ft 321 kts 153°
2026-05-06 13:14 40.55625 29.32180 14342 ft 325 kts 153°
2026-05-06 13:14 40.53573 29.33459 15058 ft 328 kts 153°
2026-05-06 13:14 40.51499 29.34742 15804 ft 331 kts 153°
2026-05-06 13:15 40.49420 29.36028 16518 ft 333 kts 153°
2026-05-06 13:15 40.47397 29.37468 17246 ft 333 kts 141°
2026-05-06 13:15 40.45634 29.39425 17965 ft 334 kts 140°
2026-05-06 13:15 40.43813 29.41295 18684 ft 335 kts 138°
2026-05-06 13:16 40.42001 29.43195 19414 ft 336 kts 140°
2026-05-06 13:16 40.40183 29.45095 20147 ft 337 kts 140°
2026-05-06 13:16 40.38335 29.47003 20876 ft 338 kts 145°
2026-05-06 13:16 40.36210 29.48354 21451 ft 345 kts 160°
2026-05-06 13:17 40.33973 29.49484 21911 ft 353 kts 158°
2026-05-06 13:17 40.31631 29.50651 22426 ft 361 kts 159°
2026-05-06 13:17 40.29287 29.51829 22959 ft 366 kts 159°
2026-05-06 13:17 40.26891 29.53025 23515 ft 371 kts 159°
2026-05-06 13:18 40.24459 29.54239 24062 ft 376 kts 159°
2026-05-06 13:18 40.22026 29.55455 24515 ft 383 kts 159°
2026-05-06 13:18 40.19517 29.56703 25010 ft 389 kts 159°
2026-05-06 13:18 40.16956 29.57982 25508 ft 394 kts 159°
2026-05-06 13:19 40.14391 29.59257 26012 ft 398 kts 159°
2026-05-06 13:19 40.11814 29.60542 26526 ft 401 kts 159°
2026-05-06 13:19 40.09184 29.61846 27039 ft 405 kts 159°
2026-05-06 13:19 40.06559 29.63152 27558 ft 408 kts 159°
2026-05-06 13:20 40.03864 29.64486 28088 ft 410 kts 159°
2026-05-06 13:20 40.01188 29.65816 28612 ft 413 kts 160°
2026-05-06 13:20 39.98473 29.67159 29054 ft 416 kts 160°
2026-05-06 13:20 39.95780 29.68494 29490 ft 417 kts 160°
2026-05-06 13:21 39.93016 29.69859 29809 ft 422 kts 160°
2026-05-06 13:21 39.90239 29.71231 30135 ft 426 kts 161°
2026-05-06 13:21 39.87437 29.72584 30444 ft 429 kts 160°
2026-05-06 13:21 39.84688 29.74254 30749 ft 433 kts 156°
2026-05-06 13:22 39.81931 29.75833 31056 ft 435 kts 157°
2026-05-06 13:22 39.79163 29.77436 31370 ft 437 kts 158°
2026-05-06 13:22 39.76389 29.79014 31562 ft 443 kts 157°
2026-05-06 13:22 39.73506 29.80652 31255 ft 460 kts 157°
2026-05-06 13:23 39.70544 29.82332 31207 ft 469 kts 157°
2026-05-06 13:23 39.64495 29.85756 31108 ft 484 kts 157°
2026-05-06 13:24 39.58272 29.89273 31098 ft 494 kts 157°
2026-05-06 13:24 39.51907 29.92864 31097 ft 501 kts 157°
2026-05-06 13:25 39.45464 29.96490 31100 ft 505 kts 158°
2026-05-06 13:25 39.39015 30.00112 31102 ft 506 kts 157°
2026-05-06 13:26 39.32547 30.03736 31107 ft 506 kts 158°
2026-05-06 13:26 39.26103 30.07339 31104 ft 506 kts 157°
2026-05-06 13:27 39.19625 30.10956 31106 ft 507 kts 157°
2026-05-06 13:27 39.13139 30.14568 31110 ft 506 kts 158°
2026-05-06 13:28 39.06797 30.18447 31108 ft 506 kts 146°
2026-05-06 13:28 39.04088 30.21308 31115 ft 506 kts 134°
2026-05-06 13:28 39.01813 30.24709 31127 ft 505 kts 129°
2026-05-06 13:29 38.97108 30.31416 31118 ft 506 kts 132°
2026-05-06 13:29 38.92326 30.38079 31110 ft 506 kts 131°
2026-05-06 13:30 38.87567 30.44709 31107 ft 506 kts 131°
2026-05-06 13:30 38.82794 30.51338 31103 ft 506 kts 131°
2026-05-06 13:31 38.78021 30.57986 31094 ft 506 kts 127°
2026-05-06 13:31 38.73497 30.64819 31104 ft 505 kts 129°
2026-05-06 13:32 38.68866 30.71578 31103 ft 505 kts 131°
2026-05-06 13:32 38.64237 30.78343 31111 ft 504 kts 130°
2026-05-06 13:33 38.59629 30.85090 31106 ft 503 kts 130°
2026-05-06 13:33 38.55030 30.91809 31104 ft 503 kts 130°
2026-05-06 13:34 38.50430 30.98515 31096 ft 504 kts 131°
2026-05-06 13:34 38.45808 31.05236 31101 ft 504 kts 130°
2026-05-06 13:34 38.43494 31.08600 30888 ft 508 kts 131°
2026-05-06 13:35 38.41169 31.11970 30878 ft 505 kts 131°
2026-05-06 13:35 38.38850 31.15333 30559 ft 510 kts 131°
2026-05-06 13:35 38.36477 31.18766 30151 ft 513 kts 131°
2026-05-06 13:35 38.34123 31.22172 29740 ft 514 kts 131°
2026-05-06 13:36 38.31770 31.25570 29360 ft 505 kts 131°
2026-05-06 13:36 38.29530 31.28802 28981 ft 480 kts 131°
2026-05-06 13:36 38.27379 31.31899 28474 ft 463 kts 131°
2026-05-06 13:36 38.25259 31.34916 27956 ft 450 kts 131°
2026-05-06 13:37 38.23205 31.37877 27421 ft 439 kts 131°
2026-05-06 13:37 38.21223 31.40722 26895 ft 430 kts 131°
2026-05-06 13:37 38.19269 31.43529 26362 ft 422 kts 131°
2026-05-06 13:37 38.17334 31.46309 25813 ft 414 kts 131°
2026-05-06 13:38 38.15448 31.49010 25281 ft 408 kts 131°
2026-05-06 13:38 38.13577 31.51691 24744 ft 402 kts 131°
2026-05-06 13:38 38.11754 31.54298 24167 ft 397 kts 131°
2026-05-06 13:38 38.09934 31.56910 23568 ft 394 kts 131°
2026-05-06 13:39 38.08120 31.59505 22973 ft 390 kts 130°
2026-05-06 13:39 38.06341 31.62048 22388 ft 386 kts 131°
2026-05-06 13:39 38.04555 31.64595 21801 ft 383 kts 131°
2026-05-06 13:39 38.02806 31.67088 21222 ft 379 kts 131°
2026-05-06 13:40 38.01051 31.69587 20390 ft 382 kts 131°
2026-05-06 13:40 37.99299 31.72083 19552 ft 383 kts 131°
2026-05-06 13:40 37.97499 31.74646 18220 ft 396 kts 132°
2026-05-06 13:40 37.95659 31.77261 16941 ft 403 kts 131°
2026-05-06 13:41 37.93812 31.79880 15678 ft 406 kts 131°
2026-05-06 13:41 37.91934 31.82542 14409 ft 405 kts 131°
2026-05-06 13:41 37.90108 31.85135 13370 ft 397 kts 131°
2026-05-06 13:41 37.88277 31.87743 12197 ft 392 kts 131°
2026-05-06 13:42 37.86493 31.90264 11176 ft 382 kts 131°
2026-05-06 13:42 37.84781 31.92685 10872 ft 356 kts 132°
2026-05-06 13:42 37.83163 31.94971 10852 ft 347 kts 132°
2026-05-06 13:42 37.81569 31.97224 10809 ft 344 kts 131°
2026-05-06 13:43 37.79971 31.99487 10755 ft 343 kts 131°
2026-05-06 13:43 37.78384 32.01735 10698 ft 341 kts 131°
2026-05-06 13:43 37.76823 32.03944 10641 ft 340 kts 131°
2026-05-06 13:43 37.75240 32.06173 10580 ft 338 kts 131°
2026-05-06 13:44 37.73671 32.08388 10516 ft 337 kts 131°
2026-05-06 13:44 37.72114 32.10572 10443 ft 335 kts 131°
2026-05-06 13:44 37.70611 32.12699 10339 ft 314 kts 129°
2026-05-06 13:44 37.69520 32.14989 10185 ft 297 kts 108°
2026-05-06 13:45 37.69188 32.17491 10011 ft 283 kts 86°
2026-05-06 13:45 37.70456 32.21855 9588 ft 261 kts 54°
2026-05-06 13:45 37.71459 32.23760 9426 ft 256 kts 54°
2026-05-06 13:46 37.72458 32.25612 9271 ft 253 kts 54°
2026-05-06 13:46 37.73450 32.27440 9108 ft 251 kts 52°
2026-05-06 13:46 37.74533 32.29118 8949 ft 248 kts 48°
2026-05-06 13:46 37.75647 32.30785 8785 ft 246 kts 48°
2026-05-06 13:47 37.76751 32.32432 8616 ft 244 kts 48°
2026-05-06 13:47 37.77848 32.34064 8442 ft 243 kts 48°
2026-05-06 13:47 37.78927 32.35674 8264 ft 239 kts 48°
2026-05-06 13:47 37.79999 32.37251 8075 ft 235 kts 47°
2026-05-06 13:48 37.81072 32.38786 7881 ft 233 kts 47°
2026-05-06 13:48 37.82137 32.40313 7690 ft 230 kts 46°
2026-05-06 13:48 37.83245 32.41763 7600 ft 226 kts 43°
2026-05-06 13:48 37.84362 32.43150 7501 ft 227 kts 43°
2026-05-06 13:49 37.85530 32.44597 7448 ft 243 kts 43°
2026-05-06 13:49 37.86767 32.46124 7385 ft 254 kts 43°
2026-05-06 13:49 37.88063 32.47716 7333 ft 263 kts 43°
2026-05-06 13:49 37.89405 32.49367 7310 ft 270 kts 43°
2026-05-06 13:50 37.90720 32.50986 7239 ft 258 kts 43°
2026-05-06 13:50 37.91982 32.52545 7112 ft 246 kts 43°
2026-05-06 13:50 37.93254 32.53909 6954 ft 234 kts 28°
2026-05-06 13:50 37.94681 32.54807 6776 ft 227 kts 26°
2026-05-06 13:51 37.96084 32.55701 6575 ft 223 kts 25°
2026-05-06 13:51 37.97486 32.56506 6370 ft 221 kts 21°
2026-05-06 13:51 37.98898 32.57278 6160 ft 219 kts 22°
2026-05-06 13:51 38.00286 32.58035 6007 ft 212 kts 22°
2026-05-06 13:52 38.01595 32.58747 5874 ft 199 kts 22°
2026-05-06 13:52 38.02839 32.59424 5780 ft 190 kts 22°
2026-05-06 13:52 38.04033 32.60070 5787 ft 183 kts 22°
2026-05-06 13:52 38.05185 32.60691 5754 ft 175 kts 22°
2026-05-06 13:53 38.06280 32.61289 5685 ft 172 kts 22°
2026-05-06 13:53 38.07423 32.61914 5684 ft 181 kts 22°
2026-05-06 13:53 38.08579 32.62614 5781 ft 187 kts 34°
2026-05-06 13:53 38.09358 32.63882 5838 ft 179 kts 66°
2026-05-06 13:54 38.09775 32.65362 5849 ft 178 kts 69°
2026-05-06 13:54 38.10176 32.66826 5838 ft 172 kts 70°
2026-05-06 13:54 38.10658 32.68185 5594 ft 173 kts 48°
2026-05-06 13:54 38.11704 32.69032 5360 ft 189 kts 12°
2026-05-06 13:55 38.12957 32.68957 5737 ft 172 kts 339°
2026-05-06 13:55 38.13876 32.68100 5702 ft 179 kts 307°
2026-05-06 13:55 38.14299 32.66576 5758 ft 177 kts 272°
2026-05-06 13:55 38.14085 32.65100 5720 ft 169 kts 256°
2026-05-06 13:56 38.13736 32.63637 5522 ft 180 kts 249°
2026-05-06 13:56 38.12940 32.62387 5405 ft 186 kts 216°
2026-05-06 13:56 38.11812 32.61588 5355 ft 188 kts 207°
2026-05-06 13:56 38.10598 32.60844 5324 ft 193 kts 205°
2026-05-06 13:57 38.09343 32.60287 5263 ft 190 kts 197°
2026-05-06 13:57 38.08086 32.59844 5017 ft 186 kts 196°
2026-05-06 13:57 38.06836 32.59394 4766 ft 189 kts 197°
2026-05-06 13:57 38.05566 32.58887 4541 ft 191 kts 199°
2026-05-06 13:58 38.04297 32.58393 4330 ft 190 kts 198°
2026-05-06 13:58 38.03046 32.57912 4072 ft 186 kts 197°
2026-05-06 13:58 38.01806 32.57435 3845 ft 183 kts 197°
2026-05-06 13:58 38.00592 32.56971 3624 ft 182 kts 197°
2026-05-06 13:59 37.99392 32.56512 3430 ft 178 kts 197°
2026-05-06 13:59 37.98267 32.56086 3398 ft 158 kts 198°
2026-05-06 13:59 37.97498 32.55793 3380 ft 65 kts 197°
2026-05-06 13:59 37.97310 32.55721 3377 ft 18 kts 197°
2026-05-06 14:00 37.97237 32.55710 3376 ft 12 kts 146°
2026-05-06 14:00 37.97203 32.55806 3373 ft 12 kts 106°
2026-05-06 14:00 37.97184 32.55889 3371 ft 4 kts 107°
2026-05-06 14:00 37.97166 32.55965 3370 ft 13 kts 106°